User: anonymous   Login
Location: Unspecified
(0.0000°N, 0.0000°E)
Time: 18:20:37
(UTC+00:00)
Language:

STARLINK-3160 - Orbit

View from above orbital plane
View from above orbital plane
View from above satellite
View from above satellite

Ground track
Ground track

The orbit is defined by the following mean orbital elements,

1 49454U          26145.51452507 +.00000000 +00000-0 +69177-4 0 00000
2 49454  53.2149 234.2389 0001113  86.2842 273.8277 15.08840713    02
Epoch (UTC): 25 May 2026 12:20:54
Eccentricity: 0.0001113
inclination: 53.2149°
perigee height: 539 km
apogee height: 541 km
right ascension of ascending node: 234.2389°
argument of perigee: 86.2842°
revolutions per day: 15.08840713
mean anomaly at epoch: 273.8277°

The dashed part of the orbit path shows where the satellite is in the earth's shadow,  

DLR